sat.trackr.live / text

‹ back to catalog

STARLINK-32120

NORAD 60265 · 2024-131L

PAYLOAD ACTIVE UNKNOWN

§ Identity

Operator
Country
US
Launch date
2024-07-27
Launch site
AFETR
Launch vehicle
Mass (kg)
RCS (m²)

Purposes: comms

External: N2YO · Heavens-Above · Gunter

§ Orbital elements

Epoch: 2026-09-21T07:42:53.101152Z

Period
93.85 min
Inclination
53.1601°
Eccentricity
0.0001361
Mean motion
15.34395170 rev/d
Perigee alt
461.8 km
Apogee alt
463.6 km
Semi-major
6,840.9 km
B*
2.5588e-5
RAAN
223.5320°
Arg perigee
93.5826°
Mean anomaly
266.5332°
Rev number
12,172

§ Raw data

STARLINK-321201 60265U 24131L   26264.32144793  .00000488  00000+0  25588-4 0  99942 60265  53.1601 223.5320 0001361  93.5826 266.5332 15.34395170121726

JSON: /api/v1/satellites/60265 · /tle

For live sub-satellite position, see the globe view (requires WebGL).

§ Visibility from observer

Set your observer location to see the next 7 days of passes ≥ 10°. The values pass through the URL so the page stays shareable.

No JS? Fill the form by hand. The geolocation button needs JavaScript.